ATLAS 5 CENTAUR DEB, 47096

Orbit data source: Space-Track

ATLAS 5 CENTAUR DEB, 47096 is space debris in HEO originally from a launch on Wed, 17 Sep 2014 UTC launched from the Air Force Eastern Test Range (AFETR). Debris objects in space refer to the collection of defunct objects orbiting the Earth. Examples of debris include non-operational satellites, rocket bodies, and fragments generated from explosions, collisions, or faulty payload assembly.

Loading next visibility...
Identifier
47096, 2014-055DE
Orbit
HEO
Country
Flag of USUS
Related business
Flag of USUnited Launch Alliance/Lockheed Martin (US)
Manufacturer
Unknown
Mission
Spacecraft
Bus & Motor
Unknown
Mass
Unknown
Launch date (UTC)
2014-09-17 (12 years ago)
Launch vehicle
Unknown
Launch site
Air Force Eastern Test Range (AFETR)
Object type
Payload
Rocket body
Debris
Shape & HBR
Unknown shape, 1.1 m
Radar Cross Section
RCS unknown

Expand to show TLE details & history
Last TLE update: 1 week ago

TLE from 1 week ago
0 ATLAS 5 CENTAUR DEB
1 47096U 14055DE  26086.27106842 -.00000014  00000-0  00000+0 0  9998
2 47096  19.2862 174.2531 4879245 111.0112 306.5571  1.79154227 35659
Epoch: 2026-03-27T06:30Z
TLE epoch observation values (Epoch: 2026-03-27T06:30:20.311Z)
Latitude
0.00002°
Longitude
-108.04729°
Altitude
20,089.902 km
Speed
4.025 km/s
True Right ascension
11h 36m 58s
True Declination
0° 00' 00"
Sunlit
Object was in full shadow at epoch
Visualization orbit readout
Latitude
Unknown
Longitude
Unknown
Altitude
Unknown
Speed
Unknown
Apparent Right ascension
Unknown
Apparent Declination
Unknown
Sunlit
N/A
Visualization observer readout
Local Sidereal Time
19:18:50
Azimuth
Unknown
Elevation
Unknown
Doppler factor
Unknown
Orbital elements
Apogee altitude
36,233.442 km
Perigee altitude
8,286.818 km
Semi-major axis
28,638.267 km
Eccentricity
0.48792
Inclination
19.2862°
RAAN
174.2531°
Arg. of periapsis
111.0112°
True anomaly
248.91243°
Mean anomaly
306.5571°
Eccentric anomaly
278.94076°
Mean motion
0.44784 °/min
Orbital period
803.86 mins
BSTAR
0
Loading maneuver chart data...
Computing Atmospheric mass density...

Documentation

Showing up to 5 results
|